Starlink 1269

operational
NORAD ID: 45197 Int'l Des: 2020-012 Owner: SPXS Country: US Constellation: starlink
LEOCIRCULARSTARLINK_TYPE

Über Starlink 1269

Beschreibung wird geladen...

Live-Position

3D-Globus wird geladen...

Nächste Überflüge

Höhenverlauf

Altitude vs Time

uPlot chart will show altitude changes over time

Zweizeiliger Elementsatz

1 45197U 20012V 25305.61672917 .00001596 00000-0 12605-3 0 9993
2 45197 53.0536 261.5624 0001460 100.3189 259.7965 15.06387055315506
Epoch: 1. Nov. 2025 • Age: 18 hours

Aktueller Status

Höhe 546.9 km
Geschwindigkeit 7.59 km/s
Subsatellitenpunkt 11.87°N, 108.49°W
Startdatum 17. Feb. 2020
Alter 5.7 years
Typ internet

Technische Details

Klassifizierung Payload
Masse 260.00 kg
Trockenmasse 248.00 kg
Gesamtmasse 260.00 kg
Länge 0.20 m
Durchmesser 2.80 m
Spannweite 9.00 m
Form Box + pan
Hersteller SPXS
Bus-Typ Starlink
Phasenstatus In Orbit
Besitzer/Staat SPXS/US

Große Konstellationen

Loading constellations...